Regional Weather Roundup
Issued by NWS Pendleton, OR

Home | Current Version | Previous Version | Text Only | Print | Product List | Glossary On
Versions: 1 2 3 4 5 6 7 8 9 10 11 12 13 14 15 16 17 18 19 20 21 22 23 24 25 26 27 28 29 30 31 32 33 34 35 36 37 38 39 40 41 42 43 44 45 46 47 48 49 50
000
ASUS46 KPDT 061410
RWRPDT
PENDLETON REGIONAL WEATHER ROUNDUP
NATIONAL WEATHER SERVICE PENDLETON OREGON
700 AM PDT WED MAY 6 2015

NOTE: FAIR INDICATES FEW OR NO CLOUDS BELOW 12,000 FEET WITH NO
SIGNIFICANT WEATHER AND/OR OBSTRUCTIONS TO VISIBILITY.

# INDICATES UNOFFICIAL STATION AND DATA

WAZ520-061510-
EAST SLOPES OF WASHINGTON CASCADES

CITY            SKY/WX      TMP DP  RH  WIND    PRES   REMARKS
#BUMPING DAM    N/A         31  N/A N/A W1      N/A
#CLE ELUM HS    N/A         35  32  89  W2      29.96S
#CLE ELUM LAKE  N/A         34  29  82  CALM    30.02R
#CLIFFDEL 2NW   N/A         32  29  89  N1      N/A
#EASTON DOT     N/A         36  26  67  N1      N/A
#GLENWOOD       N/A         32  30  92  CALM    30.04R
#MANASTASH CYN  N/A         35  25  66  CALM    29.96R
#NELSON         N/A         39  34  82  CALM    30.05R
#NELSON 3SW     N/A         36  29  75  CALM    30.24S
#NILE           N/A         34  31  89  CALM    29.29R
#PEOH POINT     N/A         31  27  85  SW7     N/A
#RONALD 2NW     N/A         35  14  41  CALM    29.87R
#SNOWDEN        N/A         38  30  73  CALM    N/A
#SOUTH BLEWITT  N/A         28  25  88  CALM    N/A
#TEANAWAY 4NE   N/A         30  28  92  CALM    N/A
#TROUT LAKE 1NE N/A         40  34  79  NW1     30.04S
$$

WAZ521-061510-
SIMCOE HIGHLANDS

CITY            SKY/WX      TMP DP  RH  WIND    PRES   REMARKS
#BICKLETON HS   N/A         38  20  48  N3      N/A
#SATUS PASS DOT N/A         31  27  85  CALM    N/A
#CENTERVILLE 4W N/A         43  36  76  W12     29.75S WCI 37
#CENTERVILLE 1SWN/A         38  33  82  CALM    30.01R
#GOLDENDALE     N/A         39  35  85  SW3     N/A
#GOLDENDALE 1NE N/A         38  27  64  SW2     N/A
#GOLDENDALE 5WNWN/A         40  35  82  W5      30.01
#GOODNOE HILLS  N/A         46  37  71  W8      N/A
#LYLE 6NE       N/A         42  37  82  SW3     30.01S
$$

WAZ026-061510-
KITTITAS VALLEY

CITY            SKY/WX      TMP DP  RH  WIND    PRES   REMARKS
#ELLENSBURG CWU N/A         42  33  70  N7      29.95R
#ELLENSBURG 3NE N/A         41  33  73  N7      30.00R
#ELLENSBURG 1E  N/A         40  30  67  CALM    N/A
#KITTITAS 4N    N/A         38  28  67  N1      28.30R
#KITTITAS 3S    N/A         35  31  85  CALM    30.01R
#THORP 6N       N/A         36  31  82  N13     30.03R WCI 27
$$

WAZ027-061510-
YAKIMA VALLEY

CITY            SKY/WX      TMP DP  RH  WIND    PRES   REMARKS
SUNNYSIDE AP    PTCLDY      36  32  85  CALM    30.02R
#DONALD 2NE     N/A         48  25  40  N1      28.87R
#GRANDVIEW      N/A         42  31  65  CALM    30.03R
#MABTON         N/A         44  33  65  SW1     30.01R
#MOXEE 2E       N/A         67  14  13  E1      29.77
#NACHES 2SW     N/A         43  34  70  W8      29.98S
#TERRACE HTS    N/A         41  32  70  CALM    29.97R
#TOPPENISH      N/A         43  33  67  CALM    29.93R
#WAPATO 4NE     N/A         48  25  40  N1      28.87R
#WEST VALLEY    N/A         40  31  70  CALM    29.99R
#W YAKIMA       N/A         45  33  63  NE2     30.01R
#WHITE SWAN 5E  N/A         35  30  82  CALM    30.03R
$$

WAZ028-061510-
LOWER COLUMBIA BASIN...WASHINGTON

CITY            SKY/WX      TMP DP  RH  WIND    PRES   REMARKS
RICHLAND AWOS   SUNNY       45  34  65  CALM    30.02S
#BASIN CITY 5SW N/A         37  33  85  CALM    30.01S
#BENTON CITY    N/A         42  34  73  N2      29.93R
#CONNELL 5N     N/A         36  29  75  CALM    30.00R
#CONNELL 5NW    N/A         39  33  79  CALM    29.96S
#ELTOPIA 6NW    N/A         43  35  73  W1      28.97S
#KAHLOTUS       N/A         41  33  73  W3      30.00R
#KENNEWICK 3S   N/A         43  37  79  CALM    30.01R
#PATERSON       N/A         41  37  86  CALM    30.01S
#PROSSER DOT    N/A         38  34  85  CALM    N/A
#PROSSER        N/A         43  29  57  CALM    30.01R
#SAGEMOOR 2W    N/A         40  36  85  CALM    29.85S
#TOUCHET 2S     N/A         45  38  76  CALM    30.02R
#WEST PASCO     N/A         42  33  70  CALM    30.04R
$$

WAZ029-061510-
FOOTHILLS OF THE BLUES...WASHINGTON

CITY            SKY/WX      TMP DP  RH  WIND    PRES   REMARKS
#DAYTON SCHOOL  N/A         39  26  59  E2      30.03R
#LOWDEN 2SE     N/A         43  37  79  CALM    30.00R
#PLEASANT VIEW 1N/A         41  35  79  S6      30.04R
#PRESCOTT       N/A         42  36  79  CALM    30.02R
#SUDBURY        N/A         40  N/A N/A CALM    N/A
#WHITMAN COLLEGEN/A         46  35  65  S6      30.07S
#WAITSBURG 5S   N/A         42  35  76  S9      30.11R
#WAITSBURG 8N   N/A         44  20  38  S10     29.88S
#WALLA WALLA 5E N/A         44  37  76  SW1     N/A
#WHITMAN MISSIONN/A         43  38  82  CALM    30.05R
$$

WAZ030-061510-
BLUE MOUNTAINS...WASHINGTON

CITY            SKY/WX      TMP DP  RH  WIND    PRES   REMARKS
#DIXIE 5SE      N/A         39  29  67  S13     29.92R WCI 31
$$

ORZ009-041-WAZ024-061510-
COLUMBIA RIVER GORGE

CITY            SKY/WX      TMP DP  RH  WIND    PRES   REMARKS
#ARLINGTON AIRPON/A         45  39  79  W5      N/A
#ARLINGTON HS   N/A         47  38  71  NW3     29.95R
#CELILO DOT     N/A         51  39  63  SW8     N/A
#MARYHILL       N/A         47  36  65  CALM    N/A
#MOSIER 1S      N/A         45  34  65  W3      30.03S
#MURDOCK        N/A         50  43  77  NW7     30.07S
#RUFUS DOT      N/A         50  38  63  W16     N/A

$$

ORZ510-061510-
NORTH CENTRAL OREGON

CITY            SKY/WX      TMP DP  RH  WIND    PRES   REMARKS
#CHENOWITH 1W   N/A         40  37  89  NW20    N/A    WCI 30
#COW CYN RST AREN/A         37  28  70  W5      N/A
#DUFUR 9E       N/A         40  33  76  W7      30.09R
#GRASS VALLEY 1SN/A         37  34  89  CALM    30.07S
#KENT DOT       N/A         35  31  85  W8      N/A
#MAUPIN SCHOOL  N/A         44  36  73  CALM    30.06S
#MORO SCHOOL    N/A         42  37  82  W6      30.03S
#SHANIKO 5WSW   N/A         35  27  72  W6      N/A
#SHANIKO 4NW    N/A         35  28  75  W7      29.99S
#TYGH VALLEY 2NEN/A         40  36  85  CALM    30.03S
#WAPANITIA AIRPON/A         43  35  73  W7      30.04R
#WASCO DOT      N/A         44  39  82  W3      N/A
#WASCO 5NE      N/A         41  36  82  W9      30.01F
$$

ORZ511-061510-
CENTRAL OREGON

CITY            SKY/WX      TMP DP  RH  WIND    PRES   REMARKS
BEND AIRPORT    PTCLDY      34  27  75  CALM    30.01S
MADRAS AIRPORT  MOCLDY      34  30  85  CALM    30.05R
PRINEVILLE AP   PTCLDY      28  25  88  CALM    30.01S
#BEND 1SW       N/A         33  28  82  N2      N/A
#BEND-AWBREY    N/A         34  29  82  SW1     30.01S
#BEND-KIM LN    N/A         34  29  82  SW2     29.97F
#CROOKED RVR RANN/A         38  32  79  CALM    30.02R
#CULVER         N/A         38  31  76  CALM    29.99R
#LAKE BILLY CHINN/A         36  22  56  CALM    30.14R
#POWELL BUTTE 3EN/A         29  26  88  E2      N/A
#POWELL BUTTE   N/A         40  32  73  N3      29.64R
#PRINEVILLE 3N  N/A         34  30  85  W2      29.99R
#WARM SPRINGS   N/A         40  33  76  CALM    30.02R

$$


ORZ509-061510-
EAST SLOPES OF OREGON CASCADES

CITY            SKY/WX      TMP DP  RH  WIND    PRES   REMARKS
#BLUE BOX PASS  N/A         32  -18 10  W5      N/A
#CAMP SHERMAN   N/A         31  27  85  CALM    30.07S
#LA PINE 4NW    N/A         24  20  84  CALM    30.07S
#SISTERS AIRPOR N/A         35  33  92  CALM    30.17S
#SISTERS ODOT   N/A         33  N/A N/A SE1     N/A
#SISTERS 3N     N/A         38  28  67  SW2     30.04S
#SUNRIVER       N/A         29  26  88  CALM    29.89S
#TUMALO 3W      N/A         34  28  78  CALM    29.90F
#WANOGA BUTTE D N/A         28  20  71  NW8     N/A

$$

ORZ044-061510-
LOWER COLUMBIA BASIN...OREGON

CITY            SKY/WX      TMP DP  RH  WIND    PRES   REMARKS
#BOARDMAN SCHOOLN/A         42  37  82  S1      30.05R
#BOARDMAN 8SW   N/A         44  40  86  SW3     30.03R
#ECHO 8SW       N/A         47  34  60  W7      30.03R
#IONE SCHOOL    N/A         46  32  58  SW3     29.99S
#IRRIGON 4NW    N/A         41  37  86  E5      N/A
#UMATILLA SCHOOLN/A         41  39  93  CALM    30.05F
#UMATILLA       N/A         62  34  35  W7      29.95S
$$

ORZ507-061510-
NORTHERN FOOTHILLS OF THE BLUES

CITY            SKY/WX      TMP DP  RH  WIND    PRES   REMARKS
#ADAMS 3WNW     N/A         38  32  79  CALM    30.02R
#ATHENA         N/A         42  34  73  CALM    30.05R
#CAYUSE         N/A         40  33  76  E2      30.03R
#HELIX SCHOOL   N/A         36  31  82  CALM    30.01R
#HELIX 3N       N/A         40  33  76  S8      29.98S
#HOLDMAN 6E     N/A         40  34  79  W1      29.83R
#M-F FERNDALE   N/A         44  34  68  CALM    30.02R
#M-F GROVE ELEM N/A         43  32  65  CALM    30.01R
#M-FREEWATER 5SEN/A         41  33  73  S1      30.02S
#PENDLETON DNTN N/A         39  25  57  CALM    30.02S
#PDT AQUATIC CTRN/A         42  25  51  CALM    30.03R
#PENDLETON 5NE  N/A         37  32  82  CALM    29.99R
#PDT SUNRIDGE   N/A         40  31  70  CALM    30.05R
#PENDLETON 7NW  N/A         36  29  75  CALM    30.00S
#PILOT ROCK     N/A         43  32  65  CALM    30.04R
#TUTUILLA       N/A         40  34  79  CALM    30.03R
#UMAPINE 2E     N/A         46  38  73  CALM    30.00S
#WESTON SCHOOL  N/A         42  30  62  W6      30.01R

$$

ORZ508-061510-
SOUTHERN FOOTHILLS OF THE BLUES

CITY            SKY/WX      TMP DP  RH  WIND    PRES   REMARKS
LEXINGTON       PTCLDY      46  34  63  S6      30.04R
#AJAX           N/A         39  27  62  S6      29.95S
#CONDON SCHOOL  N/A         38  32  79  CALM    29.96S
#CONDON 5W      N/A         35  29  78  W7      29.95S
#FOSSIL SCHOOL  N/A         40  32  73  CALM    29.98S
#HEPPNER EOC    N/A         44  35  70  SW6     29.95R
#HEPPNER 4NE    N/A         41  34  76  SW5     30.01R
#LEXINGTON 2SE  N/A         46  34  63  CALM    29.98S
#MIKKALO        N/A         43  32  65  CALM    30.02R
#OLEX 4N        N/A         43  35  73  SW6     30.00R
#RUGGS 5NE      N/A         40  32  73  SW7     30.14R
#RUGGS 2SW      N/A         38  32  79  CALM    30.03R

$$

ORZ502-503-061510-
BLUE MOUNTAINS

CITY            SKY/WX      TMP DP  RH  WIND    PRES   REMARKS
#BATTLE MTN DOT N/A         34  33  96  CALM    N/A
#HEPPNER 15SE   N/A         34  30  85  NW1     29.88R
#LADD CYN SMT   N/A         37  27  67  N5      N/A
#LADD CREEK ODOTN/A         32  28  85  SW2     N/A
#LONG CREEK HS  N/A         37  35  92  CALM    29.94S
#N POWDER DOT   N/A         36  31  82  N6      N/A
#PIKES PEAK     N/A         36  29  75  SW15    27.99S WCI 27
#TOLLGATE       N/A         30  27  88  SW6     29.89R
#TROY SCHOOL    N/A         38  31  76  CALM    29.87R
#UKIAH          N/A         37  32  82  N1      30.05S
#WESTON 4E      N/A         36  30  79  S7      29.96R
$$

ORZ505-061510-
JOHN DAY BASIN

CITY            SKY/WX      TMP DP  RH  WIND    PRES   REMARKS
JOHN DAY        CLOUDY      38  32  79  SW3     29.99S
#JOHN DAY KJDY  N/A         43  32  65  CALM    30.06S
#DAYVILLE SCHOOLN/A         36  29  75  CALM    29.99R
#MITCHELL       N/A         36  32  85  CALM    30.15R
#MONUMENT HS    N/A         37  37  100 VRB2    30.03R
#MT. VERNON 5SE N/A         35  29  78  CALM    29.94R
#WINLOCK        N/A         42  34  73  CALM    30.08R
$$

ORZ506-061510-
OCHOCO AND JOHN DAY HIGHLANDS

CITY            SKY/WX      TMP DP  RH  WIND    PRES   REMARKS
#BUCK CREEK DOT N/A         33  33  100 NW5     N/A
#HORSE RIDGE DO N/A         30  22  72  N2      N/A
#KEYES SMT DOT  N/A         34  29  82  NW6     N/A
#PAULINA SCHOOL N/A         36  28  72  W1      29.97R
#PINE MTN OBS   N/A         27  25  92  CALM    N/A
#PRAIRIE CITY   N/A         34  29  82  CALM    30.13R
#SENECA         N/A         27  N/A N/A CALM    N/A
#SENECA 9NW     N/A         25  23  92  CALM    29.95R
$$

ORZ049-061510-
GRANDE RONDE VALLEY

CITY            SKY/WX      TMP DP  RH  WIND    PRES   REMARKS
LA GRANDE       PTCLDY      41  16  36  NW10    29.99R
#COVE           N/A         35  31  85  N2      30.01R
#COVE SCHOOL    N/A         36  31  82  CALM    29.98R
#ELGIN 3N       N/A         33  27  78  CALM    29.98S
#ELGIN 1E       N/A         31  26  81  CALM    N/A
#IMBLER SCHOOL  N/A         43  25  49  N2      29.96R
#ISLAND CITY 4N N/A         45  44  96  CALM    30.09S
#LADD CYN DOT   N/A         40  30  67  NE3     N/A
#LA GRANDE ELEM N/A         42  30  62  NW9     30.02S
#UNION 1S       N/A         35  29  78  CALM    29.92R
$$

ORZ050-061510-
WALLOWA COUNTY

CITY            SKY/WX      TMP DP  RH  WIND    PRES   REMARKS
#ENTERPRISE HS  N/A         27  22  81  CALM    30.01R
#IMNAHA SCHOOL  N/A         38  29  70  S2      30.00S
#IMNAHA 10S     N/A         34  25  69  SW3     29.98S
#JOSEPH 3N      N/A         26  19  74  CALM    29.99S
#JOSEPH 3W      N/A         36  22  56  CALM    29.79S
#LOSTINE        N/A         30  23  75  CALM    29.83R
#MT HOWARD 8000 N/A         25  19  78  CALM    29.86R
#PROMISE 1S     N/A         39  31  73  CALM    30.07F
#SHEEP RDG 7000 N/A         27  22  81  CALM    29.99R
#WALLOWA SCHOOL N/A         30  24  78  CALM    30.97R



$$



USA.gov is the U.S. government's official web portal to all federal, state and local government web resources and services.